Weather History for Nairobi Jomo, Kenya

Change the Weather History Date:

Thursday, November 1, 2012

  Actual Average (HKNW) Record (HKNW)
Temperature  
Mean Temperature 72 °F -  
Max Temperature 82 °F 73 °F 82 °F (2011)
Min Temperature 62 °F 60 °F 60 °F (1997)
Cooling Degree Days 7    
Growing Degree Days 22 (Base 50)    
Moisture  
Dew Point 60 °F    
Average Humidity 76    
Maximum Humidity 94    
Minimum Humidity 28    
Precipitation  
Precipitation 0.12 in - - ()
Sea Level Pressure  
Sea Level Pressure 30.10 in    
Wind  
Wind Speed 9 mph ()    
Max Wind Speed 25 mph    
Max Gust Speed -    
Visibility 7.4 miles    
Events Rain    
Averages and records for this station are not official NWS values.
T = Trace of Precipitation, MM = Missing Value Source: Averaged Metar Reports

Daily Weather History Graph

Daily Weather History Graph

Search for Another Location

Airport:

Trip Planner

Search our weather history database for the weather conditions in past years. The results will help you decide how hot, cold, wet, or windy it might be!

Date:

Astronomy

Nov. 01, 2012 Rise Set
Actual Time 6:11 AM EAT 6:20 PM EAT
Civil Twilight 5:49 AM EAT 6:42 PM EAT
Nautical Twilight 5:24 AM EAT 7:06 PM EAT
Astronomical Twilight 4:59 AM EAT 7:31 PM EAT
Moon 8:28 PM EAT (11/1) 7:59 AM EAT (11/1)
Length of Visible Light 12h 52m
Length of Day
12h 09m
Waning Gibbous, 94% of the Moon is Illuminated
Nov 1
Waning Gibbous
Nov 7
Last Quarter
Nov 14
New
Nov 20
First Quarter
Nov 28
Full

Hourly Weather History & Observations

Time (EAT) Temp. Heat Index Dew Point Humidity Pressure Visibility Wind Dir Wind Speed Gust Speed Precip Events Conditions
12:00 AM 64.4 °F - 60.8 °F 88% 30.12 in 6.2 mi East 13.8 mph - N/A   Mostly Cloudy
12:30 AM 64.4 °F - 60.8 °F 88% 30.12 in 6.2 mi NNE 6.9 mph - N/A   Mostly Cloudy
1:00 AM 64.4 °F - 60.8 °F 88% 30.09 in 6.2 mi NNE 9.2 mph - N/A   Scattered Clouds
1:30 AM 64.4 °F - 60.8 °F 88% 30.09 in 6.2 mi North 6.9 mph - N/A   Scattered Clouds
2:00 AM 64.4 °F - 60.8 °F 88% 30.09 in 6.2 mi NNE 6.9 mph - N/A   Mostly Cloudy
2:30 AM 64.4 °F - 60.8 °F 88% 30.09 in 6.2 mi NNE 9.2 mph - N/A   Mostly Cloudy
3:00 AM 63 °F - 60 °F 89%  in 19 mi North 12.7 mph - -   Mostly Cloudy
3:00 AM 62.6 °F - 60.8 °F 94% 30.09 in 6.2 mi North 12.7 mph - N/A   Mostly Cloudy
3:30 AM 62.6 °F - 60.8 °F 94% 30.09 in 6.2 mi NNE 5.8 mph - N/A   Scattered Clouds
4:00 AM 62.6 °F - 60.8 °F 94% 30.09 in 6.2 mi North 5.8 mph - N/A   Scattered Clouds
4:30 AM 62.6 °F - 60.8 °F 94% 30.09 in 6.2 mi NE 4.6 mph - N/A   Mostly Cloudy
5:00 AM 62.6 °F - 60.8 °F 94% 30.09 in 6.2 mi NNE 5.8 mph - N/A   Mostly Cloudy
5:30 AM 62.6 °F - 60.8 °F 94% 30.09 in 6.2 mi NNE 5.8 mph - N/A   Mostly Cloudy
6:00 AM 62.6 °F - 59.0 °F 88% 30.09 in 6.2 mi North 5.8 mph - N/A   Mostly Cloudy
6:30 AM 62.6 °F - 60.8 °F 94% 30.12 in 6.2 mi North 5.8 mph - N/A   Scattered Clouds
7:00 AM 62.6 °F - 60.8 °F 94% 30.12 in 6.2 mi North 9.2 mph - N/A   Scattered Clouds
7:30 AM 64.4 °F - 60.8 °F 88% 30.15 in 6.2 mi NNE 6.9 mph - N/A   Mostly Cloudy
8:00 AM 64.4 °F - 60.8 °F 88% 30.15 in 6.2 mi NNE 8.1 mph - N/A   Mostly Cloudy
9:00 AM 67 °F - 61 °F 76%  in 19 mi NE 11.5 mph - -   Mostly Cloudy
9:00 AM 68.0 °F - 60.8 °F 78% 30.15 in 6.2 mi NE 11.5 mph - N/A   Mostly Cloudy
9:30 AM 69.8 °F - 60.8 °F 73% 30.15 in 6.2 mi NE 11.5 mph - N/A   Mostly Cloudy
10:00 AM 69.8 °F - 60.8 °F 73% 30.15 in 6.2 mi ENE 11.5 mph - N/A   Mostly Cloudy
10:30 AM 71.6 °F - 59.0 °F 64% 30.15 in 6.2 mi NE 16.1 mph - N/A   Mostly Cloudy
11:00 AM 71.6 °F - 60.8 °F 69% 30.15 in 6.2 mi North 10.4 mph - N/A   Mostly Cloudy
11:30 AM 73.4 °F - 59.0 °F 61% 30.15 in 6.2 mi ENE 13.8 mph - N/A   Mostly Cloudy
12:00 PM 73.4 °F - 59.0 °F 61% 30.12 in 6.2 mi North 6.9 mph - N/A   Mostly Cloudy
12:30 PM 75.2 °F - 59.0 °F 57% 30.09 in 6.2 mi NE 18.4 mph - N/A   Scattered Clouds
1:00 PM 77.0 °F - 59.0 °F 54% 30.09 in 6.2 mi NNE 13.8 mph - N/A   Scattered Clouds
1:30 PM 77.0 °F - 55.4 °F 47% 30.06 in 6.2 mi NE 8.1 mph - N/A   Scattered Clouds
2:00 PM 80.6 °F 80.8 °F 57.2 °F 45% 30.04 in 6.2 mi ENE 18.4 mph - N/A   Scattered Clouds
3:00 PM 82 °F - 54 °F 28%  in 19 mi ENE 16.1 mph - -   Partly Cloudy
3:00 PM 82.4 °F 81.4 °F 53.6 °F 37% 30.01 in 6.2 mi ENE 16.1 mph - N/A   Scattered Clouds
3:30 PM 80.6 °F 80.3 °F 53.6 °F 39% 29.98 in 6.2 mi NE 9.2 mph - N/A   Scattered Clouds
4:00 PM 82.4 °F 81.4 °F 53.6 °F 37% 29.98 in 6.2 mi ENE 16.1 mph - N/A   Scattered Clouds
5:00 PM 75.2 °F - 59.0 °F 57% 30.01 in 6.2 mi ENE 25.3 mph - N/A   Mostly Cloudy
6:00 PM 66.2 °F - 62.6 °F 88% 30.06 in 6.2 mi NE 13.8 mph - N/A Rain Light Rain
7:00 PM 68.0 °F - 60.8 °F 78% 30.09 in 6.2 mi NE 9.2 mph - N/A   Mostly Cloudy
8:00 PM 66.2 °F - 62.6 °F 88% 30.12 in 6.2 mi ENE 10.4 mph - N/A   Mostly Cloudy
9:00 PM 66 °F - 62 °F 82%  in 19 mi ENE 10.4 mph - -   Mostly Cloudy
9:00 PM 66.2 °F - 62.6 °F 88% 30.12 in 6.2 mi ENE 10.4 mph - N/A   Mostly Cloudy
10:00 PM 66.2 °F - 60.8 °F 83% 30.15 in 6.2 mi NE 5.8 mph - N/A   Scattered Clouds
11:00 PM 66.2 °F - 60.8 °F 83% 30.15 in 6.2 mi NNE 5.8 mph - N/A   Scattered Clouds